Home   Weather   Amiens   Past weeks

Flag for France Past Weather in Amiens, Picardy, France — Yesterday and Last 2 Weeks

Now
34 °F

Fog.


Feels Like: 34 °F
Forecast: 22 / 35 °F
Wind: 2 mph from North

Location: Beauvais Airport

Current Time: Jan 22, 2017 at 1:17:50 pm

Latest Report: Jan 22, 2017 at 12:30 pm


Visibility: 3 mi

Pressure: 30.30 "Hg

Humidity: 81%

Dew Point: 28 °F

Location of AmiensLocation

Past Weather in Amiens — Graph

°F

Amiens Temperature Yesterday

Maximum temperature yesterday: 34 °F (at 2:30 pm)
Minimum temperature yesterday: 18 °F (at 4:00 am)
Average temperature yesterday: 25 °F

High & Low Weather Summary for the Past Weeks

 TemperatureHumidityPressure
High52 °F (Jan 11, 2:00 pm)100% (Jan 7, 1:30 pm)30.60 "Hg (Jan 7, 1:30 pm)
Low16 °F (Jan 22, 4:00 am)60% (Jan 20, 1:00 pm)29.15 "Hg (Jan 12, 8:30 pm)
Average34 °F87%30.23 "Hg
* Reported Jan 7 12:00 pm — Jan 22 12:00 pm, Amiens, Weather by CustomWeather, © 2017

Note: Actual official high and low records may vary slightly from our data, if they occured in-between our weather recording intervals... More about our weather records

Advertising

Amiens Weather History for the Previous 24 Hours

Scroll right to see more
 ConditionsComfort  
Time TempWeatherWind HumidityBarometerVisibility
12:00 pm
Sun, Jan 22
30 °FIce fog.3 mph86%30.33 "Hg3 mi
11:30 am28 °FIce fog.5 mph86%30.33 "Hg2 mi
11:00 am27 °FIce fog.2 mph93%30.33 "Hg2 mi
10:30 am25 °FIce fog.2 mph93%30.33 "Hg2 mi
10:00 am21 °FIce fog.3 mph93%30.33 "Hg2 mi
9:30 am18 °FIce fog.No wind93%30.33 "Hg2 mi
9:00 am16 °FIce fog.No wind93%30.30 "Hg2 mi
8:30 am18 °FIce fog.2 mph86%30.30 "Hg2 mi
8:00 am16 °FIce fog.No wind86%30.30 "Hg2 mi
7:30 am16 °FIce fog.1 mph86%30.27 "Hg2 mi
7:00 am18 °FIce fog.No wind93%30.30 "Hg2 mi
6:30 am18 °FIce fog.No wind93%30.30 "Hg2 mi
6:00 am18 °FIce fog.No wind86%30.30 "Hg2 mi
5:30 am19 °FIce fog.3 mph93%30.30 "Hg2 mi
5:00 am18 °FIce fog.7 mph93%30.30 "Hg2 mi
4:30 am16 °FIce fog.5 mph93%30.30 "Hg2 mi
4:00 am16 °FIce fog.5 mph93%30.30 "Hg2 mi
3:30 am19 °FIce fog.No wind100%30.30 "Hg2 mi
3:00 am19 °FIce fog.No wind86%30.33 "Hg2 mi
2:30 am19 °FIce fog.No wind93%30.30 "Hg2 mi
2:00 am19 °FIce fog.3 mph86%30.33 "Hg2 mi
1:30 am19 °FIce fog.6 mph86%30.30 "Hg2 mi
1:00 am18 °FIce fog.No wind93%30.33 "Hg2 mi
12:30 am18 °FIce fog.3 mph93%30.33 "Hg2 mi
12:00 am19 °FIce fog.No wind93%30.33 "Hg2 mi
11:30 pm
Sat, Jan 21
21 °FIce fog.No wind93%30.33 "Hg2 mi
11:00 pm21 °FIce fog.2 mph93%30.33 "Hg2 mi
10:30 pm21 °FIce fog.No wind86%30.30 "Hg2 mi
10:00 pm25 °FIce fog.No wind93%30.30 "Hg3 mi
9:30 pm25 °FIce fog.2 mph86%30.30 "Hg3 mi
9:00 pm25 °FIce fog.1 mph86%30.30 "Hg3 mi
8:30 pm27 °FIce fog.2 mph93%30.30 "Hg3 mi
8:00 pm27 °FIce fog.2 mph93%30.30 "Hg3 mi
7:30 pm27 °FIce fog.2 mph86%30.30 "Hg3 mi
7:00 pm27 °FIce fog.3 mph86%30.30 "Hg3 mi
6:30 pm30 °FClear.2 mph80%30.30 "Hg4 mi
6:00 pm28 °FClear.3 mph86%30.30 "Hg4 mi
5:30 pm30 °FIce fog.2 mph75%30.30 "Hg3 mi
5:00 pm34 °FClear.3 mph70%30.30 "Hg4 mi
4:30 pm34 °FClear.2 mph70%30.30 "Hg4 mi
4:00 pm34 °FClear.2 mph70%30.30 "Hg4 mi
3:30 pm32 °FClear.2 mph75%30.30 "Hg4 mi
3:00 pm34 °FClear.2 mph70%30.30 "Hg4 mi
2:30 pm34 °FClear.3 mph70%30.30 "Hg4 mi
2:00 pm32 °FClear.5 mph69%30.30 "Hg4 mi
1:30 pm32 °FClear.5 mph69%30.33 "Hg4 mi
1:00 pm30 °FClear.6 mph75%30.33 "Hg4 mi
Weather by CustomWeather, © 2017

See weather overviewHow to use our weather pages